Date String (YYYY-MM-DD hh:mm:ss) UTC,Instrument flags,Ambient pressure (hPa),Sample flow (lpm),Bypass flow (lpm),Sample temperature (°C),Ambient temperature (°C),ASC tube jacket temperature (°C),LED temperature (°C),Box temperature (°C),Sample RH (%),Span deviation,Mass concentration (μg/m³),Mass concentration (μg/m³),Mass concentration (μg/m³)
DateTimeUTC,F1_M11,P_M11,Q1_M11,Q2_M11,T1_M11,T2_M11,T3_M11,T4_M11,T5_M11,U1_M11,ZSPAN_M11,X0_M11,X2_M11,X1_M11
2022-04-14 22:00:00,,0819.1,4.99,0.00,23.6,22.8,00.0,32.5,25.5,07.2,0000.0,0008.38,0003.93,0002.71
2022-04-14 22:01:00,,0819.2,5.02,0.00,23.7,22.8,00.0,32.5,25.5,07.6,0000.0,0008.54,0003.94,0002.71
2022-04-14 22:02:00,,0819.3,4.99,0.00,23.7,22.8,00.0,32.5,25.5,07.7,0000.0,0008.59,0003.92,0002.69
2022-04-14 22:03:00,,0819.2,5.00,0.00,23.7,22.8,00.0,32.5,25.5,07.7,0000.0,0008.60,0003.92,0002.70
2022-04-14 22:04:00,,0819.2,5.01,0.00,23.7,22.8,00.0,32.6,25.5,07.4,0000.0,0008.54,0003.92,0002.70
2022-04-14 22:05:00,,0819.1,4.98,0.00,23.7,22.8,00.0,32.6,25.5,07.2,0000.0,0008.59,0003.90,0002.69
2022-04-14 22:06:00,,0819.1,5.00,0.00,23.7,22.8,00.0,32.6,25.5,07.2,0000.0,0008.56,0003.87,0002.67
2022-04-14 22:07:00,,0819.0,5.01,0.00,23.7,22.8,00.0,32.6,25.5,07.1,0000.0,0008.20,0003.84,0002.68
2022-04-14 22:08:00,,0819.0,5.00,0.00,23.7,22.8,00.0,32.6,25.5,07.1,0000.0,0008.09,0003.81,0002.68
2022-04-14 22:09:00,,0818.9,5.00,0.00,23.7,22.8,00.0,32.6,25.5,07.2,0000.0,0008.43,0003.78,0002.68
2022-04-14 22:10:00,,0819.0,5.00,0.00,23.7,22.8,00.0,32.6,25.6,07.3,0000.0,0008.78,0003.74,0002.69
2022-04-14 22:11:00,,0819.0,5.01,0.00,23.7,22.8,00.0,32.6,25.5,07.5,0000.0,0009.36,0003.74,0002.70
2022-04-14 22:12:00,,0819.1,4.99,0.00,23.7,22.8,00.0,32.6,25.5,07.6,0000.0,0009.27,0003.72,0002.70
2022-04-14 22:13:00,,0819.1,5.01,0.00,23.7,22.8,00.0,32.6,25.5,07.2,0000.0,0008.94,0003.69,0002.71
2022-04-14 22:14:00,,0819.1,5.00,0.00,23.7,22.9,00.0,32.6,25.6,07.0,0000.0,0009.08,0003.66,0002.70
2022-04-14 22:15:00,,0819.0,5.00,0.00,23.7,22.9,00.0,32.6,25.5,07.2,0000.0,0009.08,0003.65,0002.67
2022-04-14 22:16:00,,0818.9,5.01,0.00,23.7,22.9,00.0,32.6,25.5,07.4,0000.0,0009.18,0003.70,0002.68
2022-04-14 22:17:00,,0818.9,5.00,0.00,23.8,22.9,00.0,32.6,25.5,07.4,0000.0,0009.21,0003.69,0002.67
2022-04-14 22:18:00,,0819.0,5.00,0.00,23.8,22.9,00.0,32.6,25.6,07.5,0000.0,0009.34,0003.71,0002.65
2022-04-14 22:19:00,,0819.1,5.01,0.00,23.8,22.9,00.0,32.6,25.5,07.2,0000.0,0009.57,0003.72,0002.62
2022-04-14 22:20:00,,0819.0,4.99,0.00,23.8,22.9,00.0,32.7,25.6,07.1,0000.0,0009.38,0003.73,0002.62
2022-04-14 22:21:00,,0819.1,4.99,0.00,23.8,22.9,00.0,32.7,25.6,07.0,0000.0,0009.09,0003.79,0002.63
2022-04-14 22:22:00,,0819.1,5.02,0.00,23.8,22.9,00.0,32.7,25.6,07.0,0000.0,0008.49,0003.84,0002.62
2022-04-14 22:23:00,,0819.1,4.99,0.00,23.8,22.9,00.0,32.7,25.6,06.9,0000.0,0008.45,0003.85,0002.62
2022-04-14 22:24:00,,0819.1,4.99,0.00,23.8,23.0,00.0,32.7,25.6,07.2,0000.0,0008.62,0003.91,0002.60
2022-04-14 22:25:00,,0819.1,5.02,0.00,23.8,23.0,00.0,32.7,25.6,07.1,0000.0,0008.60,0003.95,0002.61
2022-04-14 22:26:00,,0819.0,5.00,0.00,23.8,23.0,00.0,32.7,25.6,06.9,0000.0,0009.21,0004.02,0002.63
2022-04-14 22:27:00,,0818.9,4.99,0.00,23.8,23.0,00.0,32.7,25.6,07.1,0000.0,0009.19,0004.00,0002.62
2022-04-14 22:28:00,,0819.0,4.99,0.00,23.8,23.1,00.0,32.7,25.6,07.2,0000.0,0009.06,0004.02,0002.61
2022-04-14 22:29:00,,0819.0,4.99,0.00,23.8,23.1,00.0,32.7,25.6,07.2,0000.0,0009.18,0004.03,0002.60
2022-04-14 22:30:00,,0819.0,5.01,0.00,23.8,23.0,00.0,32.7,25.7,07.0,0000.0,0009.01,0004.00,0002.60
2022-04-14 22:31:00,,0819.0,4.99,0.00,23.9,23.0,00.0,32.7,25.6,06.9,0000.0,0009.51,0003.99,0002.61
2022-04-14 22:32:00,,0819.0,5.00,0.00,23.9,23.1,00.0,32.7,25.6,07.0,0000.0,0009.83,0003.94,0002.61
2022-04-14 22:33:00,,0819.0,5.02,0.00,23.9,23.1,00.0,32.7,25.6,07.1,0000.0,0009.80,0003.91,0002.59
2022-04-14 22:34:00,,0818.9,4.99,0.00,23.9,23.1,00.0,32.8,25.6,07.0,0000.0,0009.84,0003.89,0002.59
2022-04-14 22:35:00,,0818.9,5.01,0.00,23.9,23.1,00.0,32.8,25.6,07.0,0000.0,0009.88,0003.81,0002.59
2022-04-14 22:36:00,,0818.9,5.00,0.00,23.9,23.1,00.0,32.8,25.7,07.0,0000.0,0009.91,0003.83,0002.59
2022-04-14 22:37:00,,0818.9,5.01,0.00,23.9,23.1,00.0,32.8,25.7,06.9,0000.0,0009.95,0003.80,0002.59
2022-04-14 22:38:00,,0819.1,5.00,0.00,23.9,23.1,00.0,32.8,25.7,06.8,0000.0,0010.02,0003.80,0002.59
2022-04-14 22:39:00,,0819.1,4.99,0.00,23.9,23.1,00.0,32.8,25.7,07.0,0000.0,0009.92,0003.79,0002.60
2022-04-14 22:40:00,,0819.1,5.00,0.00,23.9,23.1,00.0,32.8,25.6,07.0,0000.0,0009.77,0003.78,0002.60
2022-04-14 22:41:00,,0819.1,5.00,0.00,23.9,23.1,00.0,32.8,25.6,07.1,0000.0,0010.18,0003.79,0002.61
2022-04-14 22:42:00,,0819.1,5.00,0.00,23.9,23.1,00.0,32.8,25.7,07.2,0000.0,0010.56,0003.79,0002.60
2022-04-14 22:43:00,,0819.1,5.00,0.00,23.9,23.2,00.0,32.8,25.7,07.1,0000.0,0010.39,0003.85,0002.61
2022-04-14 22:44:00,,0819.0,5.01,0.00,23.9,23.2,00.0,32.8,25.7,07.1,0000.0,0010.29,0003.85,0002.63
2022-04-14 22:45:00,,0819.1,5.00,0.00,24.0,23.2,00.0,32.8,25.7,07.1,0000.0,0010.22,0003.84,0002.66
2022-04-14 22:46:00,,0819.0,4.99,0.00,24.0,23.2,00.0,32.9,25.9,07.0,0000.0,0009.99,0003.85,0002.66
2022-04-14 22:47:00,,0819.1,5.01,0.00,24.0,23.2,00.0,32.9,25.9,07.0,0000.0,0009.94,0003.83,0002.68
2022-04-14 22:48:00,,0819.1,5.00,0.00,24.0,23.2,00.0,32.9,25.9,06.9,0000.0,0009.36,0003.83,0002.68
2022-04-14 22:49:00,,0819.1,5.00,0.00,24.0,23.2,00.0,32.9,25.9,07.0,0000.0,0009.07,0003.80,0002.70
2022-04-14 22:50:00,,0819.1,5.01,0.00,24.0,23.2,00.0,32.9,25.9,06.9,0000.0,0009.09,0003.82,0002.72
2022-04-14 22:51:00,,0819.1,4.99,0.00,24.0,23.3,00.0,32.9,25.8,07.1,0000.0,0009.06,0003.80,0002.73
2022-04-14 22:52:00,,0819.1,4.99,0.00,24.0,23.3,00.0,32.9,25.8,06.9,0000.0,0008.71,0003.83,0002.74
2022-04-14 22:53:00,,0819.1,5.00,0.00,24.0,23.3,00.0,32.9,25.9,06.9,0000.0,0007.74,0003.85,0002.75
2022-04-14 22:54:00,,0819.1,5.00,0.00,24.0,23.3,00.0,32.9,25.9,06.8,0000.0,0007.65,0003.83,0002.75
2022-04-14 22:55:00,,0819.2,5.02,0.00,24.1,23.3,00.0,32.9,25.9,06.9,0000.0,0007.69,0003.83,0002.72
2022-04-14 22:56:00,,0819.2,5.00,0.00,24.1,23.3,00.0,32.9,25.9,06.9,0000.0,0007.77,0003.86,0002.71
2022-04-14 22:57:00,,0819.2,5.00,0.00,24.1,23.3,00.0,33.0,25.9,06.9,0000.0,0007.80,0003.86,0002.71
2022-04-14 22:58:00,,0819.2,5.00,0.00,24.1,23.3,00.0,33.0,25.9,06.9,0000.0,0007.79,0003.84,0002.68
2022-04-14 22:59:00,,0819.2,5.00,0.00,24.1,23.3,00.0,33.0,25.9,07.2,0000.0,0007.75,0003.82,0002.66
